TimeCDT,TemperatureF,Dew PointF,Humidity,Sea Level PressureIn,VisibilityMPH,Wind Direction,Wind SpeedMPH,Gust SpeedMPH,PrecipitationIn,Events,Conditions,WindDirDegrees,DateUTC
12:41 AM,71.6,71.6,100,30.08,2.5,East,6.9,-,N/A,,Overcast,100,2013-04-17 05:41:00
12:51 AM,72.0,71.1,97,30.08,1.0,ESE,8.1,-,N/A,,Overcast,120,2013-04-17 05:51:00
1:14 AM,71.6,71.6,100,30.07,2.0,ESE,6.9,-,N/A,,Overcast,110,2013-04-17 06:14:00
1:28 AM,71.6,71.6,100,30.06,3.0,East,5.8,-,N/A,,Overcast,100,2013-04-17 06:28:00
1:51 AM,71.1,71.1,100,30.05,3.0,East,8.1,-,N/A,,Overcast,100,2013-04-17 06:51:00
2:05 AM,71.6,71.6,100,30.04,2.0,East,6.9,-,N/A,,Overcast,100,2013-04-17 07:05:00
2:13 AM,71.6,71.6,100,30.04,1.2,East,6.9,-,N/A,,Overcast,100,2013-04-17 07:13:00
2:28 AM,71.6,71.6,100,30.04,0.8,East,8.1,-,N/A,,Mist,100,2013-04-17 07:28:00
2:51 AM,71.1,71.1,100,30.04,0.5,East,8.1,-,N/A,Fog,Fog,100,2013-04-17 07:51:00
3:05 AM,69.8,69.8,100,30.03,0.2,East,6.9,-,N/A,Fog,Fog,100,2013-04-17 08:05:00
3:25 AM,69.8,69.8,100,30.03,0.2,East,6.9,-,N/A,Fog,Fog,90,2013-04-17 08:25:00
3:51 AM,71.1,71.1,100,30.03,0.2,East,6.9,-,N/A,Fog,Fog,100,2013-04-17 08:51:00
4:51 AM,70.0,70.0,100,30.04,0.2,East,5.8,-,N/A,Fog,Fog,100,2013-04-17 09:51:00
5:10 AM,69.8,69.8,100,30.04,0.5,East,3.5,-,N/A,Fog,Fog,90,2013-04-17 10:10:00
5:17 AM,69.8,69.8,100,30.04,0.2,East,3.5,-,N/A,Fog,Fog,90,2013-04-17 10:17:00
5:51 AM,69.1,69.1,100,30.04,0.2,East,4.6,-,N/A,Fog,Fog,90,2013-04-17 10:51:00
6:19 AM,69.8,69.8,100,30.05,0.5,East,4.6,-,N/A,Fog,Fog,100,2013-04-17 11:19:00
6:35 AM,69.8,69.8,100,30.06,0.2,East,3.5,-,N/A,Fog,Fog,100,2013-04-17 11:35:00
6:51 AM,70.0,70.0,100,30.06,0.2,East,5.8,-,N/A,Fog,Fog,100,2013-04-17 11:51:00
7:32 AM,69.8,69.8,100,30.07,1.0,ESE,5.8,-,N/A,,Mist,110,2013-04-17 12:32:00
7:44 AM,69.8,69.8,100,30.07,2.0,ESE,8.1,-,N/A,,Scattered Clouds,110,2013-04-17 12:44:00
7:51 AM,70.0,70.0,100,30.07,2.5,East,8.1,-,N/A,,Scattered Clouds,100,2013-04-17 12:51:00
8:21 AM,71.6,71.6,100,30.07,3.0,East,6.9,-,N/A,,Clear,100,2013-04-17 13:21:00
8:51 AM,72.0,72.0,100,30.07,5.0,ESE,6.9,-,N/A,,Clear,110,2013-04-17 13:51:00
9:51 AM,75.0,71.1,87,30.09,7.0,ESE,11.5,-,N/A,,Mostly Cloudy,120,2013-04-17 14:51:00
10:16 AM,75.2,71.6,89,30.09,7.0,ESE,11.5,-,N/A,,Overcast,120,2013-04-17 15:16:00
10:46 AM,75.2,71.6,89,30.10,8.0,ESE,11.5,-,N/A,,Overcast,120,2013-04-17 15:46:00
10:51 AM,75.9,72.0,87,30.10,8.0,ESE,11.5,-,N/A,,Overcast,120,2013-04-17 15:51:00
11:28 AM,77.0,73.4,89,30.09,9.0,ESE,12.7,-,N/A,,Scattered Clouds,110,2013-04-17 16:28:00
11:51 AM,77.0,73.0,88,30.09,9.0,ESE,13.8,-,N/A,,Scattered Clouds,110,2013-04-17 16:51:00
11:58 AM,77.0,73.4,89,30.09,9.0,ESE,12.7,-,N/A,,Mostly Cloudy,110,2013-04-17 16:58:00
12:39 PM,78.8,73.4,83,30.08,9.0,ESE,13.8,-,N/A,,Scattered Clouds,120,2013-04-17 17:39:00
12:51 PM,78.1,73.0,84,30.09,9.0,ESE,8.1,-,N/A,,Partly Cloudy,120,2013-04-17 17:51:00
1:51 PM,80.1,73.9,81,30.07,10.0,ESE,11.5,-,N/A,,Partly Cloudy,110,2013-04-17 18:51:00
2:51 PM,78.1,73.0,84,30.06,10.0,ESE,9.2,-,N/A,,Partly Cloudy,110,2013-04-17 19:51:00
3:51 PM,78.1,73.0,84,30.02,9.0,ESE,11.5,-,N/A,,Mostly Cloudy,110,2013-04-17 20:51:00
4:41 PM,78.8,73.4,83,30.01,10.0,ESE,12.7,-,N/A,,Scattered Clouds,110,2013-04-17 21:41:00
4:51 PM,78.1,73.0,84,30.01,9.0,ESE,10.4,-,N/A,,Partly Cloudy,110,2013-04-17 21:51:00
5:51 PM,75.9,72.0,87,30.00,9.0,ESE,12.7,20.7,N/A,,Mostly Cloudy,120,2013-04-17 22:51:00
6:31 PM,75.2,71.6,89,30.00,8.0,ESE,12.7,-,N/A,,Scattered Clouds,120,2013-04-17 23:31:00
6:51 PM,73.9,71.1,91,30.00,7.0,ESE,10.4,17.3,N/A,,Scattered Clouds,110,2013-04-17 23:51:00
7:03 PM,73.4,71.6,94,30.00,7.0,ESE,8.1,-,N/A,,Mostly Cloudy,120,2013-04-18 00:03:00
7:10 PM,73.4,71.6,94,30.00,7.0,ESE,9.2,-,N/A,,Mostly Cloudy,120,2013-04-18 00:10:00
7:44 PM,73.4,71.6,94,29.99,7.0,ESE,10.4,-,N/A,,Overcast,110,2013-04-18 00:44:00
7:51 PM,72.0,71.1,97,29.99,7.0,ESE,9.2,-,N/A,,Overcast,110,2013-04-18 00:51:00
8:26 PM,71.6,71.6,100,29.99,7.0,ESE,9.2,-,N/A,,Scattered Clouds,120,2013-04-18 01:26:00
8:51 PM,72.0,70.0,93,30.00,7.0,ESE,8.1,-,N/A,,Clear,120,2013-04-18 01:51:00
9:51 PM,71.1,70.0,96,30.01,7.0,ESE,8.1,-,N/A,,Clear,120,2013-04-18 02:51:00
10:51 PM,71.1,70.0,96,30.00,6.0,ESE,8.1,-,N/A,,Partly Cloudy,120,2013-04-18 03:51:00
11:51 PM,71.1,70.0,96,29.98,6.0,ESE,8.1,-,N/A,,Scattered Clouds,120,2013-04-18 04:51:00